Location: Hengforden
(52.3167°N, 6.1333°E)
Time: 16:30:55
(UTC+00:00)

Cosmos 1140 Rocket - Pass Details

Date: 14 June 2025
Orbit: 740 x 762 km, 74.1° (Epoch: 20 July)

Event Time Altitude Azimuth Distance (km) Brightness Sun altitude
Exits shadow 22:26:43 11° 202° (SSW) 2,180 5.4 -12.9°
Maximum altitude 22:31:38 87° 114° (ESE) 753 3.4 -13.1°
Drops below altitude 10° 22:36:47 10° 26° (NNE) 2,266 6.7 -13.3°
Sets 22:39:09 0° 26° (NNE) 3,192 7.6 -13.4°
